Location: Campo Claro
(10.4907°N, 66.8285°W)
Time: 09:06:39
(UTC+00:00)

Cosmos 1697 Rocket - Pass Details

Date: 08 December 2021
Orbit: 833 x 843 km, 71.0° (Epoch: 24 January)

Event Time Altitude Azimuth Distance (km) Brightness Sun altitude
Rises 22:33:14 0° 330° (NNW) 3,372 5.9 -7.2°
Reaches altitude 10° 22:35:49 10° 322° (NW) 2,440 5.3 -7.8°
Maximum altitude 22:40:56 37° 256° (WSW) 1,268 4.4 -8.9°
Drops below altitude 10° 22:46:04 10° 190° (S) 2,447 5.5 -10.1°
Sets 22:48:41 0° 181° (S) 3,382 6.2 -10.7°
